SCP
0 0 0 0 0 0 -0 -0 0 0 0 0 0 0 0 0 0 0 0 0 0 0 0 0 0 -0 -0 0 0 0 1 0 0 0 0 0 0 0 0 0 0 0 0
0 0 0 0 0 0 -0 0 0 0 0 0 0 0 0 0 0 0 0 0 0 0 0 0 -0 -0 -0 -0 0 0 0 0 0 0 0 0 0 0 0 0 0 0 0
0 0 0 0 0 0 -0 0 0 0 0 0 0 0 0 0 0 0 0 0 0 0 0 0 0 -0 -0 -0 -0 0 0 0 0 0 0 0 0 0 0 0 0 0 0
0 0 0 0 0 0 0 0 0 0 0 0 0 0 0 0 0 0 0 0 0 0 0 0 0 -0 -0 -0 -0 -0 0 0 0 0 0 0 0 0 0 0 0 0 0
0 0 0 0 0 0 0 0 0 0 0 0 0 0 0 0 0 0 0 0 0 0 0 0 0 0 -0 -0 -0 -0 -0 0 0 0 0 0 0 0 0 0 0 0 0
0 0 0 0 0 -0 -0 0 0 0 0 0 0 0 0 0 0 0 0 0 0 -0 0 0 0 0 -0 -0 -0 -0 -0 0 0 0 0 0 0 0 0 0 0 0 0
0 0 0 0 -0 0 0 0 0 0 0 0 0 0 0 0 0 0 0 0 -0 -0 0 0 0 0 -0 -0 -0 -0 -0 -0 0 0 0 0 0 0 0 0 0 0 0
0 0 0 0 0 -0 0 0 0 0 0 0 0 0 0 0 0 0 0 0 0 0 -0 0 0 0 -0 -0 -0 0 -0 0 0 0 0 0 0 0 0 0 0 0 0
0 0 0 0 0 0 0 0 0 0 0 0 0 0 0 0 0 0 0 0 0 0 0 0 0 0 -0 -0 -0 -0 -0 0 0 0 0 0 0 0 0 0 0 0 0
0 0 0 0 0 0 0 0 0 0 0 0 0 0 0 0 0 0 0 0 0 0 0 0 -0 0 0 -0 -0 -0 -0 -0 0 0 0 0 0 0 0 0 0 0 0
0 0 0 0 0 0 0 0 0 0 0 0 0 0 0 0 0 0 0 0 0 0 0 -0 0 0 0 0 -0 -0 -0 -0 -0 0 0 0 0 0 0 0 0 0 0
0 0 0 0 0 0 0 0 0 0 0 0 0 0 0 0 0 0 0 0 0 0 0 -0 -0 -0 0 0 -0 -0 -0 -0 0 0 0 0 0 0 0 0 0 0 0
0 0 0 0 0 0 0 0 0 0 0 0 0 0 0 0 0 0 0 0 0 0 0 -0 -0 -0 0 0 0 -0 0 -0 -0 0 0 0 0 0 0 0 0 0 0
0 0 0 0 0 0 0 0 0 0 0 0 0 0 0 0 0 0 0 0 0 0 0 0 -0 -0 -0 0 0 -0 0 -0 -0 0 0 0 0 0 0 0 0 0 0
0 0 0 0 0 0 0 0 0 0 0 0 0 0 0 0 0 0 0 0 0 0 0 0 0 -0 -0 -0 0 0 -0 0 -0 0 0 0 0 0 0 0 0 0 0
0 0 0 0 0 0 0 0 0 0 0 0 0 0 0 0 0 0 0 0 0 0 0 0 -0 0 -0 -0 0 0 0 0 -0 0 0 0 0 0 0 0 0 0 0
0 0 0 0 0 0 0 0 0 0 0 0 0 0 0 0 0 0 0 0 0 0 0 0 0 -0 0 0 0 0 0 0 -0 -0 0 0 0 0 0 0 0 0 0
0 0 0 0 0 0 0 0 0 0 0 0 0 0 0 0 0 0 0 0 0 0 0 0 0 -0 -0 0 0 0 -0 0 0 -0 0 0 0 0 0 0 0 0 0
0 0 0 0 0 0 0 0 0 0 0 0 0 0 0 0 0 0 0 0 0 0 0 0 0 0 -0 0 0 0 0 0 0 -0 0 0 0 0 0 0 0 0 0
0 0 0 0 0 0 0 0 0 0 0 0 0 0 0 0 0 0 0 0 0 0 0 0 0 0 0 0 0 0 0 0 0 -0 0 0 0 0 0 0 0 0 0
0 0 0 0 0 0 0 0 0 0 0 0 0 0 0 0 0 0 0 0 0 0 -0 0 0 0 0 0 0 0 0 0 0 0 0 0 0 0 0 0 0 0 0
0 0 0 0 0 0 0 0 0 0 0 0 0 0 0 0 0 -0 0 0 0 0 -0 0 0 0 0 0 0 0 0 0 0 0 0 0 0 0 0 0 0 0 0
0 0 0 0 0 0 0 0 0 0 0 0 0 0 0 0 0 -0 0 0 0 0 0 0 0 0 0 0 0 0 0 0 0 0 0 0 0 0 0 0 0 0 0
0 0 0 0 0 0 0 0 0 0 0 0 0 0 -0 -0 0 -0 -0 -0 0 0 0 0 0 0 0 0 0 0 0 0 0 0 0 0 0 0 0 0 0 0 0
0 0 0 0 0 0 0 0 0 0 0 0 0 0 -0 -0 -0 -0 -0 -0 -0 -0 -0 -0 0 0 0 0 0 0 0 0 0 0 0 0 0 0 0 0 0 0 0
0 0 0 0 0 0 0 0 0 0 0 0 0 -0 -0 -0 -0 -0 0 -0 -0 -0 -0 -0 -0 0 0 0 0 0 0 0 0 0 0 0 0 0 0 0 0 0 0
Wind_Speed_500mb
8 14 19 36 62 68 66 71 75 83 90 96 96 93 91 102 113 101 85 82 85 80 87 87 85 87 82 103 51 82 114 118 110 106 99 89 84 75 63 53 56 78 74
8 11 23 42 59 67 66 75 78 86 94 99 89 89 98 106 102 101 83 85 87 83 79 84 87 94 84 93 117 67 86 114 127 98 77 55 65 77 74 89 88 87 57
3 11 26 47 56 65 66 76 81 89 94 94 102 108 107 109 103 84 70 70 75 71 84 83 84 90 82 78 102 114 57 74 111 114 73 43 37 75 79 90 96 98 91
2 11 28 45 51 60 69 79 86 89 93 98 105 107 109 112 103 98 100 102 78 78 73 76 79 86 88 67 77 100 110 64 105 113 102 87 75 87 48 88 102 96 108
1 15 35 45 56 62 71 85 85 90 96 101 108 109 109 105 103 100 98 89 88 69 68 77 79 81 90 85 62 92 109 91 95 126 122 87 81 94 95 74 93 92 97
4 20 39 45 56 65 83 88 86 97 102 107 111 102 100 102 98 100 88 85 77 84 61 60 74 77 86 82 59 71 95 93 63 122 125 121 100 104 96 88 92 95 89
9 25 39 53 71 73 82 89 91 102 105 110 112 103 104 93 91 91 81 77 84 83 78 52 54 75 80 80 72 65 81 96 69 124 129 121 112 113 105 93 94 85 94
9 28 52 71 67 69 89 91 95 103 107 113 115 114 108 90 102 80 89 92 84 80 86 79 60 59 79 79 79 62 59 104 110 95 115 129 107 117 119 111 111 80 85
18 42 54 60 63 69 92 91 94 102 107 114 118 122 112 109 94 84 95 77 70 80 78 79 77 53 75 75 77 62 56 73 81 82 105 129 123 122 114 114 124 121 59
23 32 44 55 61 73 88 88 93 101 107 113 117 121 124 109 93 101 79 81 84 68 67 71 75 60 51 72 78 72 56 50 91 82 117 126 118 123 119 121 115 117 103
13 34 50 58 62 78 86 90 95 101 108 112 116 117 120 108 99 95 91 87 68 68 69 75 69 65 53 61 71 67 63 42 57 68 78 137 120 119 120 122 117 115 97
20 37 49 59 68 85 87 92 96 103 108 110 113 114 117 109 96 92 95 86 74 66 68 71 72 74 63 45 69 59 64 54 59 46 83 123 116 116 119 123 113 116 100
20 31 50 67 79 83 89 95 99 106 112 113 115 117 116 104 98 93 90 86 75 78 68 68 65 70 70 44 60 59 63 62 60 69 57 127 122 111 111 119 118 117 118
28 38 56 71 80 84 89 95 103 107 112 115 118 118 114 106 100 91 92 84 76 70 65 60 60 65 71 65 43 50 59 66 51 52 57 117 128 129 120 119 121 121 115
34 37 58 73 80 85 91 97 101 106 111 114 117 117 113 107 99 96 85 87 79 70 71 61 57 69 71 77 60 46 59 61 56 53 36 118 121 132 139 123 126 126 114
28 42 59 70 79 84 90 98 102 106 109 114 117 119 116 107 103 100 86 86 81 74 69 71 74 69 70 76 81 64 59 68 60 49 70 71 130 130 137 132 128 140 126
26 46 57 67 74 79 85 94 99 103 106 110 116 120 117 110 105 97 87 80 78 70 70 70 69 77 75 67 78 82 78 75 71 51 68 43 139 133 133 125 127 129 131
33 44 55 65 69 75 83 90 94 99 104 109 115 117 117 106 102 91 83 75 73 74 72 71 68 70 72 61 68 81 83 81 83 66 58 43 118 135 136 138 125 129 120
32 42 53 59 67 74 81 90 96 100 103 109 115 116 111 102 99 92 91 88 87 82 76 73 68 66 69 61 62 63 60 79 86 70 65 47 97 129 138 136 132 126 118
31 42 48 55 62 69 76 85 93 98 104 107 114 112 104 99 98 91 90 85 80 78 76 69 57 52 59 59 56 56 54 78 88 74 72 77 91 120 131 128 141 130 129
31 38 42 50 56 64 74 81 88 94 100 103 107 106 101 101 91 89 86 78 73 71 72 63 51 50 54 55 53 53 61 82 80 75 71 70 100 133 121 136 135 147 134
27 33 41 47 52 60 69 78 85 91 96 101 102 106 103 101 93 89 82 77 63 69 64 68 56 41 35 42 43 50 63 69 71 73 64 61 115 123 125 134 123 132 128
24 30 38 43 49 55 62 73 81 88 94 98 100 105 103 101 94 89 82 80 66 65 73 70 58 47 30 30 41 48 57 63 69 71 65 68 113 120 125 124 124 128 129
21 29 37 42 48 54 60 68 77 83 88 95 98 100 102 105 99 90 77 74 69 68 73 72 62 48 52 37 35 38 44 57 69 72 68 78 104 113 112 123 120 124 130
19 26 34 40 47 54 60 66 73 79 83 87 91 95 98 98 100 91 76 65 54 57 56 65 60 50 45 37 45 46 46 54 66 73 74 85 102 107 119 116 125 127 133
18 24 30 37 45 52 57 62 66 72 76 81 86 89 94 95 95 97 94 69 57 52 47 52 50 35 34 50 53 48 40 45 62 81 84 92 102 111 106 109 118 116 130
Wind_Direction_500mb
58 357 332 340 348 355 354 351 348 349 349 343 342 336 325 313 307 311 308 301 300 296 299 299 297 299 292 267 301 240 239 221 214 204 204 216 221 221 232 230 240 221 205
48 355 331 342 349 352 351 350 348 349 347 345 334 323 319 319 313 307 294 294 296 297 293 296 298 298 305 276 266 295 240 214 206 200 196 186 205 224 228 222 223 211 208
26 337 336 344 345 349 347 348 348 346 343 339 336 334 327 324 318 311 307 297 288 290 293 290 291 293 302 288 271 265 295 226 197 202 192 181 193 183 206 216 215 215 216
59 326 337 342 343 344 346 348 346 339 338 339 339 337 332 326 322 314 300 286 291 287 286 291 286 289 287 279 274 261 270 291 197 205 204 201 203 179 171 203 206 208 213
302 330 340 342 340 344 347 348 338 335 338 338 340 336 333 324 321 316 311 304 281 285 283 287 283 283 287 297 267 265 272 275 218 198 198 193 199 190 179 180 199 207 214
298 330 342 338 342 345 348 339 336 334 337 337 338 333 329 327 318 317 313 309 300 283 286 282 282 278 285 290 282 264 268 262 262 202 194 193 186 187 182 177 180 189 196
315 334 339 342 349 346 340 336 335 334 335 333 334 332 327 324 316 313 308 308 303 287 277 283 290 282 283 294 284 290 268 271 316 202 194 194 196 196 187 176 175 181 186
303 333 348 352 343 340 335 335 335 331 333 332 332 332 330 319 319 312 307 302 301 297 277 276 288 287 279 284 292 284 265 264 267 220 193 194 193 196 193 188 176 171 180
329 349 347 342 341 333 334 333 330 331 332 330 331 332 330 320 320 307 317 307 300 295 287 278 281 284 279 278 289 286 268 261 270 220 209 196 193 198 203 197 197 184 171
334 336 335 340 339 330 330 330 331 331 331 331 330 330 329 324 313 313 315 298 297 298 295 276 269 276 283 277 284 294 279 266 261 273 205 196 191 195 200 203 206 194 188
305 334 340 343 333 326 331 331 332 331 332 330 329 328 329 324 317 311 314 309 296 285 280 276 268 267 276 268 273 282 278 271 261 274 216 188 187 189 195 201 202 197 192
324 339 341 339 330 330 332 331 332 331 331 330 327 328 328 327 319 313 313 312 304 296 284 280 269 262 270 272 268 277 274 270 258 280 214 188 189 188 192 199 202 194 186
330 336 343 339 329 330 331 332 332 331 331 329 330 331 331 327 318 314 312 308 303 298 288 280 272 261 256 262 268 274 274 275 258 256 271 195 194 184 187 194 193 193 189
342 342 341 331 329 330 331 331 331 331 330 331 331 334 332 325 319 313 312 309 308 302 295 283 278 266 257 253 251 270 265 271 269 241 271 200 197 190 190 190 190 188 188
341 340 334 328 328 331 331 330 331 330 332 332 333 335 332 327 319 316 309 304 300 295 290 278 277 275 264 251 249 250 262 268 272 240 311 197 203 199 198 190 192 195 190
341 335 329 327 329 332 330 329 331 332 334 334 335 337 334 325 321 321 314 308 303 298 293 280 268 268 267 254 242 245 256 265 275 246 244 214 211 202 195 200 204 201 196
328 331 327 327 328 330 329 328 331 333 336 336 337 339 332 328 325 324 321 317 311 308 298 290 279 264 267 263 245 239 246 256 267 261 244 281 200 199 199 194 201 206 207
330 323 325 327 329 330 329 330 334 336 338 338 339 338 335 328 331 328 326 323 319 312 306 299 286 271 261 264 254 238 241 250 259 263 256 257 198 200 203 194 199 204 205
320 324 326 327 331 332 333 334 337 338 340 341 339 341 337 336 336 332 331 326 319 313 305 300 293 273 258 258 256 230 237 248 253 256 249 239 205 204 202 199 199 199 203
315 324 328 331 332 335 336 338 339 340 343 341 340 342 341 343 338 331 324 325 320 310 304 300 293 279 265 258 246 229 232 243 248 254 251 229 213 213 206 207 200 199 200
317 323 330 335 338 339 339 341 341 343 341 342 341 344 348 347 340 336 335 333 330 327 312 300 295 285 268 262 234 217 225 241 247 256 242 229 209 205 213 210 211 208 206
314 326 333 339 343 343 343 344 345 343 343 344 344 350 352 349 347 343 344 341 343 345 339 329 312 299 277 240 235 236 235 239 246 246 229 232 209 213 215 214 214 211 210
314 329 335 342 348 349 350 347 346 345 345 346 350 355 354 353 353 348 349 347 351 344 349 345 317 311 298 265 251 244 239 239 240 240 223 224 208 215 216 214 215 211 211
315 333 338 345 349 351 355 352 349 347 349 349 356 359 357 357 356 355 356 349 350 347 348 348 337 342 300 288 283 269 256 245 235 237 222 220 208 216 216 213 212 214 211
314 331 341 347 350 354 356 355 351 350 352 354 359 2 2 2 359 359 357 351 348 347 344 348 335 334 319 294 276 273 260 247 231 221 215 215 208 207 205 202 205 209 211
313 334 342 346 352 357 355 354 354 355 355 358 2 7 7 7 6 4 360 8 354 352 352 354 344 330 317 277 270 258 245 240 222 210 207 208 201 199 197 194 195 197 203
Wind_Speed_850mb
8 14 19 36 62 68 66 71 75 83 90 96 96 93 91 102 113 101 85 82 85 80 87 87 85 87 82 103 51 82 114 118 110 106 99 89 84 75 63 53 56 78 74
8 11 23 42 59 67 66 75 78 86 94 99 89 89 98 106 102 101 83 85 87 83 79 84 87 94 84 93 117 67 86 114 127 98 77 55 65 77 74 89 88 87 57
3 11 26 47 56 65 66 76 81 89 94 94 102 108 107 109 103 84 70 70 75 71 84 83 84 90 82 78 102 114 57 74 111 114 73 43 37 75 79 90 96 98 91
2 11 28 45 51 60 69 79 86 89 93 98 105 107 109 112 103 98 100 102 78 78 73 76 79 86 88 67 77 100 110 64 105 113 102 87 75 87 48 88 102 96 108
1 15 35 45 56 62 71 85 85 90 96 101 108 109 109 105 103 100 98 89 88 69 68 77 79 81 90 85 62 92 109 91 95 126 122 87 81 94 95 74 93 92 97
4 20 39 45 56 65 83 88 86 97 102 107 111 102 100 102 98 100 88 85 77 84 61 60 74 77 86 82 59 71 95 93 63 122 125 121 100 104 96 88 92 95 89
9 25 39 53 71 73 82 89 91 102 105 110 112 103 104 93 91 91 81 77 84 83 78 52 54 75 80 80 72 65 81 96 69 124 129 121 112 113 105 93 94 85 94
9 28 52 71 67 69 89 91 95 103 107 113 115 114 108 90 102 80 89 92 84 80 86 79 60 59 79 79 79 62 59 104 110 95 115 129 107 117 119 111 111 80 85
18 42 54 60 63 69 92 91 94 102 107 114 118 122 112 109 94 84 95 77 70 80 78 79 77 53 75 75 77 62 56 73 81 82 105 129 123 122 114 114 124 121 59
23 32 44 55 61 73 88 88 93 101 107 113 117 121 124 109 93 101 79 81 84 68 67 71 75 60 51 72 78 72 56 50 91 82 117 126 118 123 119 121 115 117 103
13 34 50 58 62 78 86 90 95 101 108 112 116 117 120 108 99 95 91 87 68 68 69 75 69 65 53 61 71 67 63 42 57 68 78 137 120 119 120 122 117 115 97
20 37 49 59 68 85 87 92 96 103 108 110 113 114 117 109 96 92 95 86 74 66 68 71 72 74 63 45 69 59 64 54 59 46 83 123 116 116 119 123 113 116 100
20 31 50 67 79 83 89 95 99 106 112 113 115 117 116 104 98 93 90 86 75 78 68 68 65 70 70 44 60 59 63 62 60 69 57 127 122 111 111 119 118 117 118
28 38 56 71 80 84 89 95 103 107 112 115 118 118 114 106 100 91 92 84 76 70 65 60 60 65 71 65 43 50 59 66 51 52 57 117 128 129 120 119 121 121 115
34 37 58 73 80 85 91 97 101 106 111 114 117 117 113 107 99 96 85 87 79 70 71 61 57 69 71 77 60 46 59 61 56 53 36 118 121 132 139 123 126 126 114
28 42 59 70 79 84 90 98 102 106 109 114 117 119 116 107 103 100 86 86 81 74 69 71 74 69 70 76 81 64 59 68 60 49 70 71 130 130 137 132 128 140 126
26 46 57 67 74 79 85 94 99 103 106 110 116 120 117 110 105 97 87 80 78 70 70 70 69 77 75 67 78 82 78 75 71 51 68 43 139 133 133 125 127 129 131
33 44 55 65 69 75 83 90 94 99 104 109 115 117 117 106 102 91 83 75 73 74 72 71 68 70 72 61 68 81 83 81 83 66 58 43 118 135 136 138 125 129 120
32 42 53 59 67 74 81 90 96 100 103 109 115 116 111 102 99 92 91 88 87 82 76 73 68 66 69 61 62 63 60 79 86 70 65 47 97 129 138 136 132 126 118
31 42 48 55 62 69 76 85 93 98 104 107 114 112 104 99 98 91 90 85 80 78 76 69 57 52 59 59 56 56 54 78 88 74 72 77 91 120 131 128 141 130 129
31 38 42 50 56 64 74 81 88 94 100 103 107 106 101 101 91 89 86 78 73 71 72 63 51 50 54 55 53 53 61 82 80 75 71 70 100 133 121 136 135 147 134
27 33 41 47 52 60 69 78 85 91 96 101 102 106 103 101 93 89 82 77 63 69 64 68 56 41 35 42 43 50 63 69 71 73 64 61 115 123 125 134 123 132 128
24 30 38 43 49 55 62 73 81 88 94 98 100 105 103 101 94 89 82 80 66 65 73 70 58 47 30 30 41 48 57 63 69 71 65 68 113 120 125 124 124 128 129
21 29 37 42 48 54 60 68 77 83 88 95 98 100 102 105 99 90 77 74 69 68 73 72 62 48 52 37 35 38 44 57 69 72 68 78 104 113 112 123 120 124 130
19 26 34 40 47 54 60 66 73 79 83 87 91 95 98 98 100 91 76 65 54 57 56 65 60 50 45 37 45 46 46 54 66 73 74 85 102 107 119 116 125 127 133
18 24 30 37 45 52 57 62 66 72 76 81 86 89 94 95 95 97 94 69 57 52 47 52 50 35 34 50 53 48 40 45 62 81 84 92 102 111 106 109 118 116 130
Wind_Direction_850mb
58 357 332 340 348 355 354 351 348 349 349 343 342 336 325 313 307 311 308 301 300 296 299 299 297 299 292 267 301 240 239 221 214 204 204 216 221 221 232 230 240 221 205
48 355 331 342 349 352 351 350 348 349 347 345 334 323 319 319 313 307 294 294 296 297 293 296 298 298 305 276 266 295 240 214 206 200 196 186 205 224 228 222 223 211 208
26 337 336 344 345 349 347 348 348 346 343 339 336 334 327 324 318 311 307 297 288 290 293 290 291 293 302 288 271 265 295 226 197 202 192 181 193 183 206 216 215 215 216
59 326 337 342 343 344 346 348 346 339 338 339 339 337 332 326 322 314 300 286 291 287 286 291 286 289 287 279 274 261 270 291 197 205 204 201 203 179 171 203 206 208 213
302 330 340 342 340 344 347 348 338 335 338 338 340 336 333 324 321 316 311 304 281 285 283 287 283 283 287 297 267 265 272 275 218 198 198 193 199 190 179 180 199 207 214
298 330 342 338 342 345 348 339 336 334 337 337 338 333 329 327 318 317 313 309 300 283 286 282 282 278 285 290 282 264 268 262 262 202 194 193 186 187 182 177 180 189 196
315 334 339 342 349 346 340 336 335 334 335 333 334 332 327 324 316 313 308 308 303 287 277 283 290 282 283 294 284 290 268 271 316 202 194 194 196 196 187 176 175 181 186
303 333 348 352 343 340 335 335 335 331 333 332 332 332 330 319 319 312 307 302 301 297 277 276 288 287 279 284 292 284 265 264 267 220 193 194 193 196 193 188 176 171 180
329 349 347 342 341 333 334 333 330 331 332 330 331 332 330 320 320 307 317 307 300 295 287 278 281 284 279 278 289 286 268 261 270 220 209 196 193 198 203 197 197 184 171
334 336 335 340 339 330 330 330 331 331 331 331 330 330 329 324 313 313 315 298 297 298 295 276 269 276 283 277 284 294 279 266 261 273 205 196 191 195 200 203 206 194 188
305 334 340 343 333 326 331 331 332 331 332 330 329 328 329 324 317 311 314 309 296 285 280 276 268 267 276 268 273 282 278 271 261 274 216 188 187 189 195 201 202 197 192
324 339 341 339 330 330 332 331 332 331 331 330 327 328 328 327 319 313 313 312 304 296 284 280 269 262 270 272 268 277 274 270 258 280 214 188 189 188 192 199 202 194 186
330 336 343 339 329 330 331 332 332 331 331 329 330 331 331 327 318 314 312 308 303 298 288 280 272 261 256 262 268 274 274 275 258 256 271 195 194 184 187 194 193 193 189
342 342 341 331 329 330 331 331 331 331 330 331 331 334 332 325 319 313 312 309 308 302 295 283 278 266 257 253 251 270 265 271 269 241 271 200 197 190 190 190 190 188 188
341 340 334 328 328 331 331 330 331 330 332 332 333 335 332 327 319 316 309 304 300 295 290 278 277 275 264 251 249 250 262 268 272 240 311 197 203 199 198 190 192 195 190
341 335 329 327 329 332 330 329 331 332 334 334 335 337 334 325 321 321 314 308 303 298 293 280 268 268 267 254 242 245 256 265 275 246 244 214 211 202 195 200 204 201 196
328 331 327 327 328 330 329 328 331 333 336 336 337 339 332 328 325 324 321 317 311 308 298 290 279 264 267 263 245 239 246 256 267 261 244 281 200 199 199 194 201 206 207
330 323 325 327 329 330 329 330 334 336 338 338 339 338 335 328 331 328 326 323 319 312 306 299 286 271 261 264 254 238 241 250 259 263 256 257 198 200 203 194 199 204 205
320 324 326 327 331 332 333 334 337 338 340 341 339 341 337 336 336 332 331 326 319 313 305 300 293 273 258 258 256 230 237 248 253 256 249 239 205 204 202 199 199 199 203
315 324 328 331 332 335 336 338 339 340 343 341 340 342 341 343 338 331 324 325 320 310 304 300 293 279 265 258 246 229 232 243 248 254 251 229 213 213 206 207 200 199 200
317 323 330 335 338 339 339 341 341 343 341 342 341 344 348 347 340 336 335 333 330 327 312 300 295 285 268 262 234 217 225 241 247 256 242 229 209 205 213 210 211 208 206
314 326 333 339 343 343 343 344 345 343 343 344 344 350 352 349 347 343 344 341 343 345 339 329 312 299 277 240 235 236 235 239 246 246 229 232 209 213 215 214 214 211 210
314 329 335 342 348 349 350 347 346 345 345 346 350 355 354 353 353 348 349 347 351 344 349 345 317 311 298 265 251 244 239 239 240 240 223 224 208 215 216 214 215 211 211
315 333 338 345 349 351 355 352 349 347 349 349 356 359 357 357 356 355 356 349 350 347 348 348 337 342 300 288 283 269 256 245 235 237 222 220 208 216 216 213 212 214 211
314 331 341 347 350 354 356 355 351 350 352 354 359 2 2 2 359 359 357 351 348 347 344 348 335 334 319 294 276 273 260 247 231 221 215 215 208 207 205 202 205 209 211
313 334 342 346 352 357 355 354 354 355 355 358 2 7 7 7 6 4 360 8 354 352 352 354 344 330 317 277 270 258 245 240 222 210 207 208 201 199 197 194 195 197 203